Location: Newark
(40.9833°N, 0.0333°W)
Time: 03:35:10
(UTC+00:00)

Transit 2A Rocket - Pass Details

Date: 29 October 2020
Orbit: 588 x 914 km, 66.7° (Epoch: 26 November)

Event Time Altitude Azimuth Distance (km) Brightness Sun altitude
Rises 08:19:26 0° 182° (S) 3,522 8.9 17.8°
Reaches altitude 10° 08:22:09 10° 173° (S) 2,593 8.5 18.2°
Maximum altitude 08:27:34 35° 110° (ESE) 1,433 8.0 19.0°
Drops below altitude 10° 08:32:55 10° 47° (NE) 2,557 7.9 19.8°
Sets 08:35:34 0° 39° (NE) 3,467 8.4 20.2°
